Home   Weather   Livonia   Past weeks

Flag for USA Past Weather in Livonia, Michigan, USA — Yesterday and Last 2 Weeks

Now
55 °F

Overcast.


Feels Like: 54 °F
Forecast: 40 / 61 °F
Wind: 6 mph from Southwest

Location: Detroit Metropolitan Wayne County Airport

Current Time: Feb 21, 2017 at 6:50:34 pm

Latest Report: Feb 21, 2017 at 5:53 pm


Visibility: 8 mi

Pressure: 29.95 "Hg

Humidity: 77%

Dew Point: 48 °F

Location of LivoniaLocation

Past Weather in Livonia — Graph

°F

Livonia Temperature Yesterday

Maximum temperature yesterday: 55 °F (at 2:53 pm)
Minimum temperature yesterday: 36 °F (at 6:53 am)
Average temperature yesterday: 43 °F

High & Low Weather Summary for the Past Weeks

 TemperatureHumidityPressure
High69 °F (Feb 18, 3:53 pm)97% (Feb 7, 5:21 am)30.34 "Hg (Feb 7, 5:21 am)
Low17 °F (Feb 10, 12:53 am)23% (Feb 19, 3:53 pm)29.28 "Hg (Feb 7, 5:04 pm)
Average37 °F67%29.89 "Hg
* Reported Feb 6 4:53 pm — Feb 21 4:53 pm, Livonia, Weather by CustomWeather, © 2017

Note: Actual official high and low records may vary slightly from our data, if they occured in-between our weather recording intervals... More about our weather records

Advertising

Livonia Weather History for the Previous 24 Hours

Scroll right to see more
 ConditionsComfort  
Time TempWeatherWind HumidityBarometerVisibility
4:53 pm
Tue, Feb 21
57 °FMostly cloudy.9 mph69%29.95 "Hg8 mi
3:53 pm56 °FMostly cloudy.7 mph70%29.94 "Hg8 mi
2:53 pm55 °FLight rain. Mostly cloudy.6 mph72%29.95 "Hg8 mi
1:53 pm55 °FMostly cloudy.6 mph67%29.95 "Hg8 mi
12:53 pm53 °FOvercast.7 mph66%29.94 "Hg8 mi
11:53 am51 °FMore clouds than sun.7 mph66%29.97 "Hg8 mi
10:53 am46 °FLight rain. More clouds than sun.8 mph73%29.99 "Hg8 mi
9:53 am43 °FMore clouds than sun.3 mph76%29.98 "Hg8 mi
8:53 am41 °FMore clouds than sun.3 mph80%30.00 "Hg8 mi
7:53 am40 °FMostly cloudy.No wind77%30.00 "Hg9 mi
6:53 am39 °FMostly cloudy.No wind79%30.00 "Hg10 mi
5:53 am39 °FMostly cloudy.No wind76%30.02 "Hg10 mi
4:53 am38 °FMostly cloudy.No wind79%30.02 "Hg10 mi
3:53 am38 °FMostly cloudy.3 mph76%30.03 "Hg9 mi
2:53 am39 °FMostly cloudy.No wind73%30.06 "Hg10 mi
1:53 am39 °FMostly cloudy.3 mph73%30.07 "Hg10 mi
12:53 am39 °FMostly cloudy.5 mph70%30.10 "Hg10 mi
11:53 pm
Mon, Feb 20
39 °FOvercast.5 mph67%30.14 "Hg10 mi
10:53 pm38 °FOvercast.6 mph70%30.16 "Hg10 mi
9:53 pm38 °FMostly cloudy.6 mph68%30.19 "Hg10 mi
8:53 pm39 °FMostly cloudy.9 mph65%30.20 "Hg10 mi
7:53 pm41 °FOvercast.8 mph65%30.22 "Hg10 mi
6:53 pm44 °FOvercast.8 mph63%30.23 "Hg10 mi
Weather by CustomWeather, © 2017

See weather overviewHow to use our weather pages